Total_Precipitation_Accumulation
0.15 0.17 0.18 0.20 0.22 0.24 0.32 0.30 0.35 0.32 0.34 0.37 0.36 0.36 0.37 0.38 0.38 0.40 0.40 0.40 0.42 0.43 0.51 0.54 0.54 0.51 0.48 0.47 0.53 0.53 0.49 0.49 0.48 0.48 0.52 0.53 0.58 0.65 0.64 0.68 0.94 0.93 0.66 0.33 0.20 0.18 0.20 0.19 0.15 0.19 0.22 0.29 0.36 0.37 0.35 0.26 0.26 0.28 0.28 0.34 0.39 0.45 0.49
0.18 0.18 0.19 0.21 0.22 0.22 0.24 0.32 0.33 0.33 0.37 0.39 0.37 0.37 0.39 0.43 0.47 0.45 0.45 0.43 0.45 0.43 0.45 0.51 0.55 0.52 0.49 0.49 0.58 0.60 0.60 0.57 0.52 0.55 0.55 0.51 0.56 0.62 0.61 0.57 0.74 0.83 0.70 0.53 0.30 0.23 0.19 0.20 0.14 0.19 0.17 0.23 0.27 0.33 0.37 0.37 0.33 0.30 0.30 0.31 0.34 0.40 0.40
0.21 0.21 0.21 0.21 0.20 0.20 0.23 0.24 0.27 0.26 0.32 0.36 0.37 0.37 0.36 0.37 0.40 0.41 0.42 0.42 0.41 0.40 0.41 0.47 0.51 0.52 0.49 0.50 0.61 0.62 0.63 0.60 0.60 0.57 0.55 0.54 0.47 0.48 0.47 0.50 0.61 0.76 0.74 0.56 0.45 0.29 0.26 0.24 0.21 0.21 0.22 0.21 0.26 0.28 0.26 0.36 0.40 0.39 0.38 0.36 0.36 0.38 0.36
0.20 0.21 0.21 0.23 0.23 0.28 0.23 0.24 0.22 0.25 0.28 0.30 0.29 0.33 0.37 0.34 0.33 0.35 0.38 0.41 0.40 0.40 0.44 0.48 0.52 0.52 0.51 0.57 0.62 0.63 0.63 0.66 0.68 0.68 0.65 0.59 0.52 0.49 0.44 0.39 0.42 0.51 0.65 0.58 0.54 0.38 0.32 0.26 0.24 0.22 0.19 0.20 0.22 0.29 0.34 0.35 0.41 0.41 0.42 0.39 0.42 0.38 0.42
0.20 0.22 0.23 0.23 0.22 0.20 0.20 0.21 0.21 0.22 0.23 0.24 0.24 0.27 0.29 0.31 0.33 0.34 0.35 0.36 0.39 0.43 0.46 0.47 0.48 0.47 0.48 0.53 0.64 0.64 0.67 0.68 0.71 0.75 0.76 0.76 0.68 0.66 0.60 0.55 0.53 0.54 0.54 0.67 0.61 0.46 0.31 0.25 0.24 0.24 0.23 0.22 0.27 0.30 0.34 0.37 0.41 0.45 0.49 0.48 0.45 0.42 0.41
0.24 0.24 0.23 0.22 0.22 0.22 0.24 0.22 0.23 0.23 0.27 0.23 0.21 0.21 0.22 0.24 0.25 0.25 0.28 0.31 0.33 0.35 0.39 0.43 0.43 0.42 0.44 0.48 0.56 0.60 0.58 0.66 0.75 0.79 0.78 0.80 0.81 0.82 0.78 0.79 0.77 0.72 0.74 0.73 0.69 0.56 0.43 0.29 0.27 0.27 0.27 0.26 0.29 0.31 0.34 0.41 0.44 0.42 0.49 0.55 0.57 0.55 0.50
0.25 0.24 0.24 0.23 0.23 0.23 0.23 0.22 0.22 0.22 0.23 0.23 0.22 0.24 0.24 0.24 0.24 0.23 0.24 0.24 0.25 0.25 0.27 0.31 0.33 0.35 0.37 0.43 0.47 0.50 0.51 0.53 0.55 0.67 0.73 0.76 0.79 0.79 0.86 0.98 0.99 0.92 0.87 0.85 0.82 0.74 0.54 0.45 0.37 0.29 0.33 0.25 0.23 0.26 0.28 0.35 0.43 0.50 0.47 0.50 0.51 0.53 0.51
0.26 0.24 0.24 0.25 0.24 0.23 0.22 0.23 0.22 0.22 0.24 0.24 0.24 0.25 0.27 0.26 0.30 0.31 0.29 0.25 0.22 0.22 0.25 0.25 0.26 0.27 0.27 0.28 0.31 0.35 0.37 0.41 0.50 0.55 0.65 0.64 0.69 0.77 0.92 1.00 0.98 0.95 0.95 0.96 0.92 0.80 0.67 0.53 0.43 0.34 0.28 0.28 0.30 0.34 0.35 0.31 0.37 0.46 0.46 0.47 0.48 0.47 0.51
0.28 0.28 0.29 0.25 0.25 0.26 0.23 0.25 0.24 0.24 0.29 0.30 0.29 0.32 0.39 0.38 0.40 0.37 0.35 0.32 0.31 0.28 0.26 0.24 0.24 0.23 0.27 0.24 0.24 0.26 0.29 0.33 0.40 0.51 0.62 0.61 0.64 0.76 0.88 0.95 0.95 0.99 1.01 0.98 0.91 0.83 0.63 0.57 0.48 0.41 0.36 0.33 0.35 0.41 0.42 0.32 0.31 0.38 0.35 0.36 0.38 0.44 0.48
0.30 0.32 0.41 0.30 0.28 0.27 0.29 0.28 0.26 0.26 0.37 0.38 0.50 0.62 0.66 0.68 0.65 0.60 0.58 0.55 0.48 0.40 0.34 0.30 0.27 0.24 0.21 0.22 0.24 0.27 0.30 0.36 0.42 0.45 0.53 0.63 0.67 0.74 0.87 0.95 0.99 0.96 0.90 0.91 0.97 0.84 0.69 0.67 0.56 0.43 0.36 0.33 0.29 0.25 0.22 0.25 0.30 0.36 0.33 0.29 0.35 0.37 0.45
0.39 0.37 0.36 0.35 0.36 0.39 0.36 0.35 0.30 0.30 0.48 0.69 0.91 0.95 1.01 0.96 0.85 0.73 0.66 0.59 0.54 0.47 0.37 0.31 0.27 0.26 0.24 0.24 0.26 0.28 0.32 0.37 0.40 0.47 0.53 0.55 0.60 0.73 0.90 1.08 1.13 1.04 0.90 0.93 0.88 0.78 0.66 0.61 0.52 0.39 0.35 0.33 0.29 0.25 0.27 0.29 0.30 0.36 0.37 0.42 0.46 0.51 0.43
0.45 0.38 0.36 0.37 0.37 0.40 0.38 0.39 0.34 0.41 0.70 0.89 1.17 1.44 1.35 1.19 1.04 0.88 0.76 0.66 0.60 0.53 0.46 0.41 0.36 0.33 0.31 0.31 0.30 0.32 0.34 0.39 0.43 0.48 0.50 0.55 0.63 0.72 0.86 1.03 1.03 1.08 1.03 0.91 0.91 0.87 0.73 0.66 0.54 0.37 0.32 0.30 0.31 0.35 0.32 0.33 0.37 0.43 0.48 0.49 0.48 0.43 0.42
0.42 0.42 0.43 0.43 0.49 0.44 0.42 0.42 0.39 0.51 0.80 0.99 1.34 1.67 1.76 1.41 1.17 0.99 0.80 0.66 0.58 0.53 0.47 0.44 0.46 0.43 0.39 0.34 0.30 0.33 0.33 0.35 0.37 0.39 0.44 0.51 0.56 0.60 0.76 0.99 1.24 1.16 0.99 1.07 1.05 1.01 0.82 0.60 0.55 0.54 0.38 0.28 0.32 0.39 0.46 0.42 0.48 0.50 0.51 0.52 0.50 0.42 0.34
0.50 0.49 0.54 0.55 0.57 0.55 0.54 0.51 0.48 0.59 0.93 1.26 1.54 1.90 2.12 1.55 1.30 1.05 0.86 0.70 0.59 0.52 0.46 0.43 0.44 0.46 0.42 0.35 0.32 0.34 0.35 0.36 0.39 0.40 0.42 0.49 0.54 0.57 0.56 0.67 0.73 0.75 0.71 0.81 0.96 1.07 0.99 0.63 0.57 0.49 0.45 0.56 0.48 0.54 0.65 0.66 0.64 0.59 0.60 0.60 0.58 0.43 0.39
0.57 0.58 0.61 0.63 0.72 0.69 0.68 0.58 0.56 0.78 1.15 1.37 1.65 1.94 2.44 1.77 1.45 1.14 0.88 0.69 0.59 0.55 0.51 0.46 0.44 0.43 0.40 0.36 0.36 0.36 0.35 0.38 0.42 0.45 0.50 0.49 0.47 0.43 0.40 0.38 0.38 0.45 0.61 0.69 0.65 0.73 0.76 0.64 0.53 0.47 0.43 0.44 0.54 0.73 0.79 0.74 0.71 0.65 0.67 0.68 0.60 0.58 0.54
0.50 0.52 0.53 0.53 0.57 0.63 0.62 0.50 0.55 0.84 1.13 1.34 1.69 2.19 2.04 1.83 1.40 1.10 0.88 0.70 0.59 0.54 0.49 0.44 0.46 0.49 0.47 0.41 0.38 0.35 0.55 0.49 0.51 0.61 0.64 0.57 0.46 0.38 0.33 0.31 0.29 0.43 0.54 0.49 0.65 0.71 0.68 0.65 0.63 0.81 0.82 0.84 0.87 0.85 0.82 0.82 0.84 0.84 0.92 0.99 1.00 0.83 0.54
0.39 0.42 0.47 0.49 0.50 0.52 0.48 0.45 0.49 0.69 1.01 1.19 1.56 2.30 2.34 1.95 1.40 1.04 0.82 0.64 0.55 0.51 0.48 0.44 0.44 0.46 0.48 0.43 0.38 0.37 0.62 0.79 0.89 0.92 0.87 0.77 0.62 0.48 0.42 0.35 0.25 0.44 0.87 1.33 1.69 1.95 1.72 1.62 1.66 1.81 2.05 2.05 1.99 1.43 1.32 1.30 1.37 1.20 0.88 0.92 0.96 0.70 0.46
0.41 0.41 0.43 0.47 0.48 0.47 0.50 0.45 0.43 0.58 0.81 1.04 1.42 1.90 1.92 1.78 1.50 1.08 0.84 0.72 0.61 0.56 0.53 0.44 0.47 0.46 0.47 0.46 0.39 0.53 0.77 1.06 1.13 1.35 1.14 0.97 0.84 0.69 0.56 0.38 0.23 0.21 0.26 0.69 1.21 1.52 1.62 1.82 1.60 1.55 1.56 1.78 1.76 1.63 1.16 1.38 1.55 1.04 0.68 0.76 0.71 0.67 0.41
0.41 0.40 0.41 0.42 0.43 0.46 0.50 0.48 0.43 0.49 0.73 1.01 1.45 1.71 1.78 1.68 1.42 1.19 0.92 0.80 0.72 0.59 0.50 0.42 0.39 0.46 0.53 0.48 0.48 0.81 1.06 1.56 1.35 1.42 1.20 0.90 0.83 0.82 0.68 0.44 0.30 0.26 0.28 0.29 0.37 0.47 0.55 0.67 0.87 0.82 0.84 0.73 0.84 0.96 1.11 1.04 1.07 0.90 0.85 0.89 0.71 0.59 0.53
0.34 0.35 0.37 0.40 0.47 0.50 0.49 0.49 0.46 0.50 0.65 1.01 1.37 1.50 1.49 1.44 1.30 1.20 1.02 0.90 0.77 0.76 0.66 0.53 0.47 0.42 0.46 0.74 1.02 1.01 1.39 1.57 2.13 1.59 1.50 1.17 1.08 0.95 0.68 0.39 0.30 0.32 0.34 0.35 0.35 0.34 0.31 0.36 0.41 0.53 0.67 0.68 0.63 0.58 0.65 0.85 0.71 0.75 0.80 0.82 0.75 0.61 0.55
0.34 0.39 0.43 0.42 0.44 0.48 0.49 0.49 0.47 0.42 0.57 0.95 1.11 1.12 1.53 1.39 1.18 0.97 0.89 0.87 0.83 0.71 0.63 0.57 0.50 0.45 0.40 0.50 0.77 1.01 1.35 1.61 2.06 2.07 1.56 1.43 1.25 0.90 0.65 0.55 0.61 0.53 0.43 0.46 0.40 0.36 0.33 0.33 0.37 0.48 0.58 0.68 0.62 0.58 0.57 0.69 0.51 0.55 0.50 0.64 0.74 0.72 0.64
0.42 0.42 0.36 0.33 0.37 0.43 0.44 0.42 0.41 0.45 0.51 0.76 0.99 1.11 1.34 1.31 1.15 0.91 0.97 0.99 0.79 0.61 0.52 0.44 0.43 0.43 0.43 0.48 0.70 1.09 1.64 1.82 2.11 2.29 1.58 1.38 1.58 1.58 1.34 0.80 0.69 0.58 0.55 0.49 0.46 0.43 0.41 0.40 0.39 0.42 0.47 0.58 0.62 0.57 0.66 0.58 0.51 0.42 0.37 0.34 0.38 0.48 0.56
0.42 0.38 0.35 0.35 0.39 0.40 0.40 0.39 0.38 0.49 0.44 0.53 0.80 0.96 1.15 1.29 1.32 1.23 0.96 0.91 0.81 0.61 0.48 0.41 0.41 0.40 0.46 0.60 1.12 1.48 1.80 1.90 2.07 1.84 1.70 1.83 1.65 1.54 1.29 1.18 1.14 0.95 0.81 0.68 0.55 0.50 0.53 0.46 0.38 0.40 0.39 0.39 0.48 0.48 0.41 0.46 0.45 0.43 0.41 0.41 0.34 0.31 0.33
0.42 0.35 0.37 0.39 0.40 0.39 0.37 0.37 0.42 0.43 0.37 0.40 0.56 0.84 1.12 1.14 1.29 1.22 0.95 0.84 0.72 0.60 0.54 0.50 0.46 0.51 0.69 1.05 1.11 1.26 1.52 1.74 1.57 1.53 1.76 1.84 1.60 1.18 1.13 1.22 1.28 1.21 1.09 0.88 0.71 0.62 0.52 0.44 0.32 0.31 0.31 0.32 0.28 0.38 0.44 0.45 0.47 0.42 0.41 0.41 0.36 0.30 0.29
0.35 0.38 0.38 0.39 0.39 0.41 0.40 0.40 0.42 0.38 0.37 0.38 0.42 0.55 0.74 0.87 0.99 0.93 0.81 0.73 0.61 0.57 0.57 0.54 0.63 0.77 0.88 0.99 1.10 1.16 1.08 1.11 1.02 1.06 1.33 1.21 1.19 1.22 1.17 1.23 1.11 0.98 0.93 1.02 0.94 0.70 0.49 0.34 0.27 0.25 0.24 0.24 0.29 0.35 0.48 0.54 0.56 0.54 0.46 0.44 0.41 0.38 0.31
0.40 0.38 0.37 0.38 0.37 0.41 0.44 0.48 0.42 0.36 0.37 0.41 0.43 0.45 0.54 0.65 0.64 0.65 0.61 0.64 0.56 0.45 0.42 0.46 0.61 0.51 0.53 0.59 0.66 0.76 0.89 1.11 0.84 0.74 0.73 0.86 0.98 1.00 1.11 1.12 0.99 0.80 0.76 0.75 0.61 0.55 0.49 0.37 0.28 0.30 0.34 0.30 0.34 0.42 0.49 0.55 0.60 0.66 0.62 0.54 0.55 0.52 0.48
0.43 0.44 0.45 0.45 0.43 0.47 0.48 0.48 0.39 0.37 0.39 0.47 0.54 0.54 0.55 0.59 0.57 0.60 0.52 0.51 0.56 0.52 0.45 0.43 0.46 0.46 0.50 0.51 0.54 0.65 0.76 0.71 0.60 0.62 0.79 0.68 0.65 0.87 0.97 1.21 0.87 0.69 0.66 0.56 0.49 0.45 0.38 0.36 0.44 0.41 0.50 0.52 0.48 0.48 0.44 0.43 0.47 0.56 0.56 0.51 0.49 0.48 0.48
0.63 0.68 0.69 0.71 0.65 0.64 0.55 0.46 0.40 0.39 0.49 0.67 0.70 0.69 0.62 0.59 0.58 0.65 0.65 0.50 0.49 0.51 0.48 0.50 0.51 0.54 0.53 0.62 0.66 0.67 0.68 0.66 0.64 0.57 0.51 0.51 0.57 0.66 0.74 0.85 0.85 0.81 0.81 0.66 0.64 0.67 0.57 0.60 0.59 0.63 0.58 0.51 0.48 0.40 0.35 0.37 0.44 0.46 0.54 0.59 0.57 0.69 0.63
1.09 0.99 0.99 0.86 0.84 0.90 0.78 0.63 0.62 0.57 0.65 0.78 0.80 0.82 0.80 0.81 0.73 0.67 0.65 0.53 0.54 0.61 0.60 0.55 0.55 0.54 0.52 0.49 0.49 0.51 0.53 0.51 0.49 0.46 0.48 0.55 0.58 0.55 0.57 0.59 0.74 0.81 0.71 0.59 0.64 0.73 0.70 0.70 0.68 0.61 0.53 0.54 0.54 0.45 0.38 0.38 0.46 0.49 0.50 0.59 0.70 0.75 0.60
1.36 1.30 1.24 1.09 0.83 0.85 1.01 0.94 0.77 0.71 0.94 1.01 1.05 1.19 1.00 0.92 0.99 0.89 0.75 0.63 0.59 0.57 0.59 0.53 0.47 0.43 0.42 0.40 0.38 0.39 0.38 0.38 0.39 0.41 0.42 0.46 0.52 0.51 0.53 0.55 0.59 0.63 0.60 0.56 0.65 0.62 0.68 0.64 0.61 0.55 0.53 0.53 0.53 0.50 0.43 0.41 0.49 0.54 0.56 0.66 0.78 0.77 0.66
1.25 1.31 1.11 1.06 1.15 0.97 0.71 0.66 0.62 0.63 0.91 1.05 1.29 1.28 1.14 1.20 1.09 1.02 0.92 0.76 0.70 0.63 0.53 0.47 0.41 0.39 0.35 0.34 0.33 0.34 0.33 0.34 0.36 0.36 0.37 0.40 0.43 0.44 0.47 0.50 0.52 0.57 0.56 0.56 0.59 0.62 0.66 0.61 0.59 0.53 0.46 0.45 0.42 0.42 0.46 0.52 0.57 0.54 0.60 0.64 0.62 0.63 0.55
1.01 1.11 1.24 1.06 1.11 1.22 0.99 0.79 0.74 0.74 1.06 1.23 1.42 1.43 1.22 1.18 1.22 1.14 0.97 0.77 0.74 0.69 0.54 0.43 0.38 0.37 0.35 0.32 0.33 0.30 0.29 0.32 0.37 0.38 0.39 0.37 0.34 0.32 0.32 0.37 0.44 0.50 0.52 0.53 0.54 0.55 0.59 0.63 0.63 0.59 0.51 0.44 0.40 0.40 0.42 0.49 0.59 0.65 0.76 0.71 0.64 0.57 0.49
0.66 0.74 0.89 0.94 1.11 1.22 1.18 0.96 0.91 0.92 1.10 1.19 1.29 1.23 1.01 0.99 0.98 0.84 0.76 0.66 0.56 0.51 0.46 0.40 0.38 0.37 0.35 0.34 0.32 0.31 0.32 0.35 0.38 0.34 0.33 0.32 0.33 0.30 0.27 0.27 0.29 0.36 0.43 0.46 0.48 0.51 0.53 0.64 0.57 0.61 0.59 0.56 0.48 0.46 0.45 0.40 0.43 0.45 0.49 0.57 0.65 0.59 0.52
0.51 0.48 0.52 0.54 0.68 0.81 0.87 0.78 0.76 0.77 0.77 0.86 0.95 0.93 0.94 0.96 0.82 0.71 0.74 0.62 0.56 0.48 0.44 0.38 0.36 0.35 0.35 0.36 0.36 0.36 0.36 0.37 0.38 0.32 0.30 0.26 0.25 0.26 0.26 0.23 0.25 0.30 0.35 0.37 0.41 0.46 0.45 0.48 0.52 0.59 0.62 0.65 0.58 0.51 0.45 0.45 0.41 0.40 0.48 0.55 0.52 0.48 0.46
0.41 0.38 0.42 0.51 0.53 0.65 0.69 0.60 0.56 0.65 0.77 0.87 0.88 0.88 1.00 0.81 0.74 0.75 0.58 0.44 0.43 0.44 0.41 0.38 0.35 0.34 0.31 0.31 0.33 0.34 0.35 0.35 0.35 0.31 0.29 0.28 0.25 0.23 0.23 0.26 0.25 0.25 0.27 0.29 0.32 0.37 0.39 0.41 0.46 0.50 0.51 0.53 0.54 0.54 0.54 0.48 0.45 0.44 0.43 0.45 0.47 0.44 0.41
0.43 0.39 0.38 0.46 0.44 0.48 0.61 0.61 0.56 0.58 0.74 0.92 0.92 0.92 0.83 0.78 0.65 0.52 0.45 0.39 0.36 0.37 0.38 0.37 0.37 0.36 0.35 0.37 0.38 0.38 0.37 0.35 0.35 0.35 0.34 0.32 0.30 0.27 0.26 0.27 0.27 0.26 0.26 0.25 0.26 0.29 0.32 0.35 0.40 0.45 0.51 0.51 0.49 0.46 0.43 0.40 0.38 0.38 0.40 0.41 0.42 0.46 0.44